Location: Newark
(35.6799°N, 139.7636°E)
Time: 14:46:45
(UTC+00:00)

Transit 2A - Pass Details

Date: 11 December 2019
Orbit: 601 x 958 km, 66.7° (Epoch: 27 January)

Event Time Altitude Azimuth Distance (km) Brightness Sun altitude
Rises 21:15:14 0° 216° (SW) 3,152 9.1 -5.5°
Reaches altitude 10° 21:17:44 10° 220° (SW) 2,177 8.2 -5.0°
Maximum altitude 21:22:32 57° 298° (WNW) 785 5.8 -4.1°
Drops below altitude 10° 21:27:00 10° 18° (NNE) 2,014 8.1 -3.3°
Sets 21:29:14 0° 23° (NNE) 2,895 9.0 -2.9°
